Location: Emblem
(62.4273°N, 6.4710°E)
Time: 21:22:01
(UTC+02:00)

Vanguard 2 - Pass Details

Date: 06 February 2023
Orbit: 553 x 2927 km, 32.9° (Epoch: 27 March)

Event Time Altitude Azimuth Distance (km) Brightness Sun altitude
Rises 00:35:39 0° 239° (WSW) 5,997 - -43.3°
Reaches altitude 10° 00:41:00 10° 224° (SW) 5,315 - -43.3°
Maximum altitude 00:50:54 20° 186° (S) 4,900 - -43.3°
Drops below altitude 10° 01:01:30 10° 149° (SSE) 5,732 - -43.3°
Sets 01:07:40 0° 135° (SE) 6,608 - -43.2°
